Regional Weather Roundup
Issued by NWS Green Bay, WI

Home | Current Version | Previous Version | Graphics & Text | Print | Product List | Glossary Off
Versions: 1 2 3 4 5 6 7 8 9 10 11 12 13 14 15 16 17 18 19 20 21 22 23 24 25 26 27 28 29 30 31 32 33 34 35 36 37 38 39 40 41 42 43 44 45 46 47 48 49 50

000
ASUS43 KGRB 310310
RWRGRB

NORTH-CENTRAL AND NORTHEAST WISCONSIN REGIONAL WEATHER ROUNDUP
NATIONAL WEATHER SERVICE GREEN BAY WI
1000 PM CDT WED JUL 30 2014

WIZ005-009-010>012-018-019-310400-
NORTH CENTRAL WISCONSIN

CITY           SKY/WX    TMP DP  RH WIND       PRES   REMARKS
IRONWOOD       NOT AVBL
MANITOWISH WTR PTCLDY    54  54 100 CALM      30.00S
ARBOR VITAE    CLEAR     57  49  76 CALM      30.00S
EAGLE RIVER    PTCLDY    55  55 100 CALM      30.01R FOG
LAND O LAKES   FOG       53  53  99 CALM      30.01S VSB 3/4
RHINELANDER    PTCLDY    57  53  86 CALM      30.01S
PHILLIPS       CLOUDY    60  57  91 CALM      30.01R
ANTIGO         MOCLDY    55  54  96 S3        30.01F
TOMAHAWK       CLEAR     57  56  95 CALM      30.01S FOG
MERRILL        PTCLDY    60  60  97 W3        30.00S
$$

WIZ013-073-310400-
NORTHEAST WISCONSIN

CITY           SKY/WX    TMP DP  RH WIND       PRES   REMARKS
IRON MOUNTAIN  MOCLDY    59  56  89 CALM      29.97S
MARINETTE      CLOUDY    59  55  88 NW3       29.96S
OCONTO         CLOUDY    60  60 100 W3        29.97F
$$

WIZ017-030-035>037-045-310400-
CENTRAL WISCONSIN

CITY           SKY/WX    TMP DP  RH WIND       PRES   REMARKS
MEDFORD        CLOUDY    60  57  89 W6        30.01F
WAUSAU         PTCLDY    63  58  83 CALM      29.98F
MOSINEE        CLOUDY    63  61  94 CALM      30.01S
MARSHFIELD     RAIN      63  59  87 W10       30.02R FOG
WISC RAPIDS    CLOUDY    67  57  70 W6        30.02R
STEVENS POINT  LGT RAIN  64  57  76 CALM      30.01S
WAUPACA        CLOUDY    67  54  62 SW3       30.00S
SHAWANO        CLOUDY    62  59  90 W6        30.00F
CLINTONVILLE   CLOUDY    61  54  77 NE6       30.01R
$$

WIZ038-039-048-051-310400-
FOX VALLEY

CITY           SKY/WX    TMP DP  RH WIND       PRES   REMARKS
NWS GREEN BAY  LGT RAIN  62  59  90 N9        30.00R
APPLETON       PTCLDY    66  52  59 W7        29.99S
OSHKOSH        PTCLDY    65  53  65 VRB3      30.00R
FOND DU LAC    PTCLDY    63  54  72 SW5       30.01R
$$

WIZ022-050-052-310400-
EAST CENTRAL WISCONSIN

CITY           SKY/WX    TMP DP  RH WIND       PRES   REMARKS
STURGEON BAY   CLOUDY    61  52  72 SW10      29.97S
MANITOWOC      PTCLDY    61  53  75 SW5       30.00S
SHEBOYGAN      PTCLDY    58  51  78 S5        30.00S
$$

LMZ563-521-522-541>543-310400-
LAKESHORE

STATION/POSITION TIME  TEMP    WIND        PRES    VSBY  WAVE
                       AIR SEA DIR/SP/G                  HT/PER
                 (UTC) (F)     (DEG/KT/KT) (MB)    (MI)  (FT/S)
SHEBOYGAN LKSHOR 0300   63     190/  6/  7 1016.0R
KEWAUNEE LKSHORE 0300   62     230/  4/  6 1014.9F
ALGOMA MARINA    0300          250/  8/ 10   N/A
NORTHPORT PIER   0300   61     220/  2/  4 1014.6S
N MID LAKE BUOY  0200   57 54  210/  8/  8 1014.6R         0
SISTER BAY LKSHO 0200   64     280/  7/  8   N/A
CHAMBERS ISLAND  0300   61     250/  1/  3 1014.6S
MENOMINEE LKSHOR 0300   63     230/  5/  6 1015.2S
$$


USA.gov is the U.S. government's official web portal to all federal, state and local government web resources and services.